Regional Weather Roundup
Issued by NWS Portland, ME

Home | Current Version | Previous Version | Text Only | Print | Product List | Glossary On
Versions: 1 2 3 4 5 6 7 8 9 10 11 12 13 14 15 16 17 18 19 20 21 22 23 24 25 26 27 28 29 30 31 32 33 34 35 36 37 38 39 40 41 42 43 44 45 46 47 48 49 50
000
ASUS41 KGYX 250810
RWRGYX
WEATHER ROUNDUP FOR MAINE AND NEW HAMPSHIRE
NATIONAL WEATHER SERVICE GRAY ME
400 AM EDT FRI APR 25 2014

MEZ002-005-006-010-012-015-018-020-021-024-026-027-029-250900-
MAINE

CITY           SKY/WX    TMP DP  RH WIND       PRES   REMARKS
PORTLAND       CLEAR     43  26  51 NW9       29.89R
SANFORD        CLEAR     43 N/A N/A NW5       29.89S
BAR HARBOR     MOCLDY    37  34  87 N6        29.84R
WISCASSET      CLEAR     34  30  85 CALM      29.89R
ROCKLAND       CLEAR     39  32  75 NW6       29.87R
FRYEBURG       CLEAR     42  25  50 VRB3      29.90R
LEWISTONAUBURN CLEAR     39  27  60 N5        29.88R
AUGUSTA        CLEAR     38  29  70 N9        29.87S
WATERVILLE     CLEAR     39  28  65 N8        29.83S
BANGOR         PTCLDY    33  29  85 NW9       29.86S
GREENVILLE       N/A     33  30  88 NW9       29.82R
MILLINOCKET    CLOUDY    36  30  79 N6        29.86S
HOULTON        CLOUDY    33  31  92 N7        29.82S
PRESQUE ISLE   CLOUDY    32  27  80 NW10      29.86R
FRENCHVILLE    CLOUDY    29  27  92 NW13      29.84S WCI  19
CARIBOU        CLOUDY    32  29  88 NW10      29.84R
$$

NHZ002-005-008-009-011-012-014-250900-
NEW HAMPSHIRE

CITY           SKY/WX    TMP DP  RH WIND       PRES   REMARKS
PORTSMOUTH     CLEAR     39  27  62 W7        29.90R
ROCHESTER      CLEAR     38  26  62 NW5       29.90R
NASHUA         CLEAR     41  27  57 NW6       29.93S
MANCHESTER     CLEAR     42  25  50 N5        29.91R
CONCORD        CLEAR     38  25  59 NW6       29.92S
LACONIA        CLEAR     43  25  49 W7        29.91R
PLYMOUTH         N/A     41  27  58 W12       29.92S
BERLIN         CLEAR     27  23  85 N3        29.91R
WHITEFIELD     CLEAR     27  23  85 CALM      29.94R
JAFFREY        CLEAR     39  21  48 CALM      29.93R
LEBANON        CLEAR     35  21  56 E3        29.95R
MT WASHINGTON  FOG       16  16 100 N43         N/A  VSB 1/8 WCI  -7
$$

VTZ005-007-008-250900-
VERMONT

CITY           SKY/WX    TMP DP  RH WIND       PRES   REMARKS
ST JOHNSBURY     N/A     30  25  81 MISG      29.94S
MONTPELIER     CLEAR     33  22  63 CALM      29.99S
BURLINGTON     CLEAR     32  24  72 SE3       30.01R
$$

MAZ007-012-024-CTZ003-RIZ002-NYZ038-NYZ072-250900-
SOUTHERN NEW ENGLAND AND NY

CITY           SKY/WX    TMP DP  RH WIND       PRES   REMARKS
BOSTON         CLEAR     46  26  45 NW10      29.93R
WORCESTER      CLEAR     38  22  52 NW12      29.92S
NANTUCKET      CLEAR     45  32  60 N12       29.89R
PROVIDENCE     CLEAR     45  23  42 NW8       29.93S
HARTFORD       CLEAR     41  17  38 NW6       29.96S
ALBANY         CLEAR     34  21  59 CALM      30.01S
NEW YORK CITY  CLEAR     47  19  33 NW9       30.00F
$$

ANZ081-ANZ082-ANZ150-NHZ014-MEZ023>029-250900-
COASTAL MARINE OBSERVATIONS

STATION/POSITION TIME  TEMP    WIND        PRES    WAVE
                       AIR SEA DIR/SP/G            HT/PER
                 (UTC) (F)     (DEG/KT/KT) (MB)    (FT/S)
MOUNT DESERT ROC 0800   39                 1009.7R
MATINICUS ROCK   0700   41     340/ 18/ 21 1010.5F
PORTLAND WX BUOY 0800   43 40  330/  8/  8 1011.8R   1/12
WELLS            0800   43 42  320/  7/  9 1011.3R
ISLE OF SHOALS   0700   44     300/ 10/ 10 1011.3F
JEFFREYS LEDGE   0800      42                N/A     4/ 6
CASHES LEDGE BUO 0800   42 41  340/ 14/ 16 1010.7R   6/ 8
$$

.............KEY..............
   WCI - WIND CHILL
   TC  - TEMPERATURE IN CELSIUS
   VSB - VISIBILITY IN MILES
   HX  - HEAT INDEX
   FAIR- INDICATES FEW OR NO CLOUDS BELOW 12,000 FT, WITH NO
         SIGNIFICANT WEATHER AND/OR OBSTRUCTIONS TO VISIBILITY.





USA.gov is the U.S. government's official web portal to all federal, state and local government web resources and services.